Location: Star Camp Observatory
(34.2910°N, 116.3827°W)
Time: 02:12:02
(UTC-07:00)

ISS - Visible Passes

Search period start: 19 October 2019 00:00
Search period end: 29 October 2019 00:00
Orbit: 411 x 421 km, 51.6° (Epoch: 19 October)

Date Brightness Start Highest point End Pass type
(mag) Time Alt. Az. Time Alt. Az. Time Alt. Az.
21 Oct -1.0 06:18:35 10° S 06:21:12 21° SE 06:23:47 10° ENE visible
22 Oct -0.5 05:31:49 10° SE 05:32:48 11° SE 05:33:48 10° ESE visible
23 Oct -3.6 06:17:15 10° SW 06:20:35 75° SE 06:23:56 10° NE visible
24 Oct -2.3 05:29:57 17° SSW 05:32:04 36° SE 05:35:11 10° ENE visible
25 Oct -1.0 04:44:24 18° ESE 04:44:24 18° ESE 04:46:04 10° E visible
25 Oct -2.9 06:17:21 12° WSW 06:20:10 33° NW 06:23:15 10° NNE visible
26 Oct -3.8 05:31:32 61° NW 05:31:32 61° NW 05:34:51 10° NE visible
27 Oct -0.8 04:45:30 16° NE 04:45:30 16° NE 04:46:14 10° NE visible
27 Oct -1.7 06:18:25 12° WNW 06:19:56 14° NNW 06:21:53 10° N visible
28 Oct -1.8 05:32:13 19° N 05:32:13 19° N 05:33:49 10° NNE visible
